Location: Champignolles
(47.0543°N, 4.5663°E)
Time: 04:15:48
(UTC+00:00)

N. Korean satellite - Pass Details

Date: 12 December 2021
Orbit: 447 x 491 km, 97.3° (Epoch: 25 January)

Event Time Altitude Azimuth Distance (km) Brightness Sun altitude
Rises 04:07:28 0° 28° (NNE) 2,460 10.5 -31.4°
Enters shadow 04:08:32 - 34° (NE) 2,065 10.1 -31.3°
Exits shadow 04:13:38 15° 120° (ESE) 1,314 9.4 -30.4°
Drops below altitude 10° 04:14:44 10° 137° (SE) 1,580 9.6 -30.2°
Sets 04:17:15 0° 158° (SSE) 2,452 10.4 -29.8°
